This is the latest recevied weather packets stored in our database for station/object W1LBM. If no packets are shown the sender has not sent any weather packets the latest 10 day(s).
| Time | Temp. | Humidity | Pressure | Rain* | Wind** | Luminosity | Snow |
|---|---|---|---|---|---|---|---|
| 1778175014 | 16.11° C | 38% | 1009.9 hPa | 0 mm | - | 724 W/m² | - |
| 1778174709 | 16.11° C | 38% | 1009.9 hPa | 0 mm | - | 724 W/m² | - |
| 1778174406 | 16.11° C | 40% | 1009.9 hPa | 0 mm | - | 729 W/m² | - |
| 1778174101 | 15.56° C | 39% | 1010.1 hPa | 0 mm | - | 731 W/m² | - |
| 1778173799 | 16.11° C | 40% | 1010.3 hPa | 0 mm | - | 733 W/m² | - |
| 1778173496 | 16.11° C | 35% | 1010.3 hPa | 0 mm | - | 737 W/m² | - |
| 1778173192 | 16.11° C | 41% | 1010.4 hPa | 0 mm | - | 737 W/m² | - |
| 1778172888 | 15.56° C | 37% | 1010.5 hPa | 0 mm | - | 738 W/m² | - |
| 1778172584 | 15.56° C | 38% | 1010.6 hPa | 0 mm | - | 738 W/m² | - |
| 1778172281 | 15.56° C | 40% | 1010.4 hPa | 0 mm | - | 739 W/m² | - |
| 1778171978 | 15.56° C | 38% | 1010.5 hPa | 0 mm | - | 739 W/m² | - |
| 1778171675 | 15° C | 42% | 1010.5 hPa | 0 mm | - | 736 W/m² | - |
| 1778171372 | 15.56° C | 47% | 1010.7 hPa | 0 mm | - | 736 W/m² | - |
| 1778171067 | 15.56° C | 43% | 1010.6 hPa | 0 mm | - | 735 W/m² | - |
| 1778170765 | 15° C | 46% | 1010.7 hPa | 0 mm | - | 732 W/m² | - |
| 1778170461 | 15° C | 46% | 1010.7 hPa | 0 mm | - | 730 W/m² | - |
| 1778170158 | 15.56° C | 45% | 1010.9 hPa | 0 mm | - | 729 W/m² | - |
| 1778169854 | 15° C | 46% | 1011 hPa | 0 mm | - | 731 W/m² | - |
| 1778169550 | 15° C | 50% | 1011 hPa | 0 mm | - | 723 W/m² | - |
| 1778169246 | 15° C | 46% | 1010.9 hPa | 0 mm | - | 720 W/m² | - |
| 1778168943 | 15° C | 50% | 1011.1 hPa | 0 mm | - | 715 W/m² | - |
| 1778168640 | 15° C | 57% | 1011.2 hPa | 0 mm | - | 711 W/m² | - |
| 1778168390 | 15° C | 56% | 1010.9 hPa | 0 mm | - | 703 W/m² | - |
| 1778168337 | 15° C | 56% | 1010.9 hPa | 0 mm | - | 703 W/m² | - |
| 1778168034 | 15° C | 57% | 1011.1 hPa | 0 mm | - | 704 W/m² | - |
* Rain latest hour (hover to see other rain measurements)
** Current wind speed in m/s (hover to see current wind gust speed)